[[{"header":{"parameterUnit":"m.s-1","parameterCategory":1,"la1":30.2991,"la2":30.254,"lo1":-89.0895,"lo2":-89.0444,"dy":0.0017,"dx":0.0017,"nx":28,"ny":28,"refTime":"2025-11-23T09:00:00:Z","depth":0,"parameterNumber":2,"parameterNumberName":"U-component_of_WINDS"},"data":[0,0,0,0,0,0,0,0,0,0,0,0,0,0,0,0,0,0,0,0,0,0,0,0,0,0,0,0,0,0,0,0,0,0,0,0,0,0,0,0,0,0,0,0,0,0,0,0,0,0,0,0,0,0,0,0,0,0,0.6022,0.6023,0,0.6068,0.6069,0.6069,0.6065,0.6064,0.6064,0.6063,0.6113,0.6115,0.6117,0,0,0,0,0,0,0,0,0,0,0,0,0,0.5935,0.5937,0.6022,0.6023,0.6023,0.6068,0.6069,0.6069,0.6065,0.6064,0.6064,0.6063,0.6112,0.6115,0.6117,0,0,0,0,0,0,0,0,0,0,0,0,0,0.5976,0.5937,0.6022,0.6027,0.6028,0.6068,0.6069,0.6069,0.6066,0.6064,0.6063,0.6062,0.6112,0.6114,0.6117,0.6157,0,0,0.6127,0.6128,0,0,0,0,0,0,0,0,0.5974,0.598,0.6026,0.6027,0.6028,0.606,0.6056,0.6099,0.6066,0.6051,0.6063,0.6062,0.6096,0.6101,0.6112,0.6159,0.6161,0.6127,0.6129,0.613,0.6131,0,0,0,0,0,0,0,0.5971,0.5978,0.6041,0.6026,0.6028,0.6028,0.6032,0.6064,0.6079,0.6052,0.6052,0.6058,0.6097,0.6109,0.6113,0.6162,0.6127,0.6129,0.6131,0.6132,0.6246,0.6247,0,0,0,0,0,0,0.5967,0.5975,0.6039,0.6042,0.5998,0.603,0.6035,0.6051,0.6079,0.6082,0.6058,0.6057,0.6104,0.6109,0.6114,0.6163,0.613,0.6133,0.6134,0.6245,0.6246,0.6247,0,0,0,0,0,0,0.5965,0.5973,0.6037,0.6009,0.6017,0.6033,0.605,0.6052,0.6064,0.6083,0.6086,0.6068,0.6103,0.611,0.6146,0.6164,0.6134,0.6137,0.6243,0.6245,0.6247,0.6259,0,0,0,0,0,0,0.5962,0.5972,0.5986,0.6009,0.6018,0.6067,0.6051,0.6054,0.6069,0.6068,0.6093,0.6096,0.6103,0.6142,0.6149,0.6168,0.6139,0.6242,0.6244,0.6246,0.6258,0.6262,0.6265,0,0,0,0,0,0.5959,0.5988,0.5987,0.5994,0.6036,0.6068,0.6074,0.6081,0.607,0.6085,0.6098,0.6095,0.6162,0.6146,0.6154,0.6174,0.6241,0.6243,0.6246,0.6256,0.6261,0.6265,0,0,0,0,0,0,0.5968,0.5991,0.599,0.6027,0.6046,0.6067,0.6086,0.6086,0.6108,0.6106,0.6115,0.6121,0.6157,0.6169,0.6151,0.6214,0.62,0.6204,0.6204,0.6209,0.6213,0.6209,0.6141,0,0,0,0,0,0.5974,0.5997,0.6017,0.6048,0.6057,0.607,0.6084,0.6088,0.6108,0.6116,0.6132,0.6152,0.6178,0.6194,0.6219,0.626,0.6266,0.6278,0.6281,0.6284,0.6288,0.6311,0.6317,0.6257,0.6257,0.6256,0,0,0.5987,0.6003,0.6017,0.605,0.6064,0.6089,0.6077,0.6103,0.6122,0.6121,0.6155,0.6168,0.6191,0.623,0.6248,0.6241,0.6306,0.6288,0.629,0.6292,0.6314,0.632,0.6325,0.6258,0.6258,0.6258,0,0,0.6023,0.6037,0.6064,0.6079,0.6102,0.6111,0.6117,0.614,0.6148,0.6183,0.6182,0.6206,0.6249,0.6266,0.6281,0.6325,0.6323,0.6333,0.6352,0.6374,0.6379,0.6383,0.6398,0.6404,0.6336,0.6336,0.6336,0,0.6036,0.6072,0.6078,0.6105,0.612,0.612,0.6148,0.6163,0.6193,0.6204,0.6196,0.6251,0.6267,0.631,0.6321,0.6332,0.6341,0.6329,0.6377,0.6382,0.6386,0.6401,0.6406,0.6337,0.6337,0.6337,0.6337,0,0.6087,0.6113,0.6132,0.616,0.6177,0.6205,0.6217,0.6234,0.6237,0.6247,0.6283,0.6302,0.6331,0.6342,0.6345,0.6386,0.6381,0.6375,0.6361,0.6392,0.6406,0.6412,0.6339,0.6338,0.6338,0.6338,0,0,0.6128,0.616,0.6167,0.618,0.6206,0.6226,0.6254,0.6281,0.6296,0.6317,0.6342,0.6379,0.6374,0.6391,0.6396,0.6416,0.645,0.6408,0.6409,0.6415,0.6496,0.6499,0.6505,0.6449,0.645,0.6451,0.6494,0,0.6166,0.6214,0.6222,0.6265,0.6289,0.629,0.6315,0.6334,0.6344,0.6367,0.638,0.6406,0.6398,0.6408,0.6427,0.6441,0.6466,0.6439,0.6472,0.6474,0.6465,0.6513,0.6516,0.6555,0.6499,0.65,0.6501,0,0.6216,0.6238,0.6283,0.6306,0.6317,0.6338,0.6364,0.6386,0.6409,0.6415,0.6434,0.6437,0.6468,0.6453,0.6496,0.6477,0.6492,0.6501,0.6503,0.6506,0.6488,0.6516,0.6568,0.6573,0.651,0.6509,0.6508,0,0.6241,0.6282,0.6314,0.6325,0.6353,0.6369,0.6381,0.6403,0.6419,0.6442,0.6453,0.648,0.6495,0.6517,0.6528,0.6516,0.657,0.6556,0.6577,0.6576,0.6587,0.6586,0.664,0.6598,0.6598,0.6598,0.6598,0,0.6282,0.6309,0.6326,0.6345,0.6377,0.6386,0.6417,0.643,0.6449,0.6472,0.6476,0.6498,0.6511,0.6536,0.6545,0.6579,0.6586,0.6593,0.6595,0.6592,0.6591,0.6601,0.6598,0.6599,0.6599,0.6599,0.6598,0,0.6314,0.6326,0.6361,0.6385,0.6392,0.6414,0.6435,0.6455,0.6466,0.6495,0.6503,0.6521,0.655,0.6563,0.66,0.6606,0.6645,0.6645,0.6636,0.6637,0.6657,0.6654,0.6719,0.6728,0.668,0.668,0.6681,0,0.6338,0.636,0.6386,0.6401,0.6414,0.6438,0.6455,0.6466,0.6483,0.6511,0.6528,0.6557,0.658,0.6627,0.6644,0.6672,0.6673,0.6694,0.6677,0.6674,0.6673,0.6671,0.6673,0.6696,0.6697,0.6697,0.6697,0,0.6381,0.6386,0.6409,0.6435,0.6454,0.6475,0.6496,0.6508,0.6523,0.6543,0.6572,0.659,0.6627,0.6656,0.6685,0.67,0.6701,0.6703,0.6709,0.6706,0.6699,0.6702,0.6644,0.6701,0.6701,0.67,0.67,0.67,0.641,0.6429,0.645,0.6476,0.6493,0.6512,0.6532,0.6546,0.657,0.66,0.6606,0.6637,0.6661,0.67,0.6715,0.6741,0.6736,0.6745,0.6747,0.6749,0.675,0.6696,0.6746,0.6746,0.6746,0.6746,0.6746,0,0.6452,0.6466,0.649,0.6518,0.6539,0.6538,0.6562,0.6579,0.6606,0.6628,0.6651,0.6685,0.6713,0.6733,0.6762,0.6779,0.6781,0.6786,0.6785,0.6788,0.6753,0.6744,0.6784,0.6784,0.6784,0.6784,0.6784,0.6784,0.6476,0.6508,0.6516,0.6557,0.6571,0.6601,0.6614,0.6633,0.665,0.6687,0.6711,0.6723,0.6744,0.6775,0.6802,0.6807,0.6817,0.6823,0.6828,0.6794,0.679,0.6787,0.6778,0.6826,0.6826,0.6861,0.6862,0.6862]},{"header":{"parameterUnit":"m.s-1","parameterCategory":1,"la1":30.2991,"la2":30.254,"lo1":-89.0895,"lo2":-89.0444,"dy":0.0017,"dx":0.0017,"nx":28,"ny":28,"refTime":"2025-11-23T09:00:00:Z","depth":0,"parameterNumber":3,"parameterNumberName":"V-component_of_WINDS"},"data":[0,0,0,0,0,0,0,0,0,0,0,0,0,0,0,0,0,0,0,0,0,0,0,0,0,0,0,0,0,0,0,0,0,0,0,0,0,0,0,0,0,0,0,0,0,0,0,0,0,0,0,0,0,0,0,0,0,0,-0.7873,-0.7874,0,-0.7952,-0.7953,-0.7954,-0.8053,-0.8055,-0.8056,-0.8058,-0.8136,-0.8137,-0.8138,0,0,0,0,0,0,0,0,0,0,0,0,0,-0.7807,-0.7808,-0.7873,-0.7874,-0.7875,-0.7952,-0.7953,-0.7954,-0.8053,-0.8055,-0.8057,-0.8058,-0.8136,-0.8137,-0.8138,0,0,0,0,0,0,0,0,0,0,0,0,0,-0.7856,-0.7808,-0.7873,-0.7933,-0.794,-0.7952,-0.7953,-0.7954,-0.8052,-0.8055,-0.8057,-0.8059,-0.8136,-0.8137,-0.8138,-0.8096,0,0,-0.814,-0.8141,0,0,0,0,0,0,0,0,-0.7853,-0.7858,-0.7923,-0.7929,-0.7936,-0.7995,-0.7959,-0.8002,-0.8052,-0.8009,-0.8058,-0.806,-0.8087,-0.8092,-0.8102,-0.81,-0.8103,-0.8141,-0.8141,-0.8142,-0.8142,0,0,0,0,0,0,0,-0.7849,-0.7855,-0.7904,-0.7924,-0.7932,-0.7957,-0.7966,-0.7968,-0.8034,-0.8013,-0.8021,-0.8029,-0.8091,-0.8101,-0.8104,-0.8104,-0.8141,-0.8141,-0.8142,-0.8142,-0.8077,-0.8075,0,0,0,0,0,0,-0.7837,-0.7852,-0.7902,-0.7907,-0.79,-0.7956,-0.7967,-0.7974,-0.8034,-0.8046,-0.8027,-0.8033,-0.8098,-0.8103,-0.8108,-0.8067,-0.8142,-0.8142,-0.8143,-0.8079,-0.8076,-0.8074,0,0,0,0,0,0,-0.7835,-0.7841,-0.7898,-0.7881,-0.7891,-0.7955,-0.7962,-0.7974,-0.7984,-0.8044,-0.8057,-0.8024,-0.81,-0.8106,-0.8099,-0.8071,-0.8143,-0.8144,-0.8082,-0.8078,-0.8075,-0.7982,0,0,0,0,0,0,-0.7833,-0.7839,-0.7824,-0.788,-0.7891,-0.7888,-0.796,-0.7974,-0.7986,-0.7995,-0.8045,-0.8056,-0.8102,-0.8098,-0.81,-0.8073,-0.8144,-0.8085,-0.808,-0.8076,-0.7988,-0.7975,-0.7965,0,0,0,0,0,-0.783,-0.7793,-0.7822,-0.7828,-0.7873,-0.7887,-0.7893,-0.7948,-0.7983,-0.7968,-0.8008,-0.8055,-0.8073,-0.8096,-0.81,-0.8073,-0.8087,-0.8081,-0.8076,-0.7993,-0.7978,-0.7965,0,0,0,0,0,0,-0.7729,-0.7801,-0.7835,-0.7814,-0.7844,-0.7903,-0.7887,-0.7929,-0.7949,-0.7956,-0.8023,-0.8033,-0.8019,-0.8045,-0.8069,-0.8038,-0.8087,-0.8082,-0.8022,-0.8008,-0.7997,-0.7992,-0.8145,0,0,0,0,0,-0.7705,-0.771,-0.7772,-0.7748,-0.7762,-0.7821,-0.7829,-0.7869,-0.7902,-0.7915,-0.7954,-0.7983,-0.7997,-0.8003,-0.8018,-0.7991,-0.8006,-0.7975,-0.7963,-0.7954,-0.795,-0.7942,-0.793,-0.8057,-0.8057,-0.8057,0,0,-0.7654,-0.7694,-0.7693,-0.7729,-0.7757,-0.7762,-0.7831,-0.7832,-0.7837,-0.7914,-0.7912,-0.7941,-0.7979,-0.7963,-0.7958,-0.7984,-0.7918,-0.7947,-0.7939,-0.7941,-0.7935,-0.7923,-0.7913,-0.8053,-0.8054,-0.8054,0,0,-0.7565,-0.7594,-0.758,-0.7607,-0.7649,-0.7689,-0.7686,-0.7739,-0.7763,-0.7761,-0.7821,-0.7827,-0.7847,-0.7873,-0.7889,-0.7813,-0.7858,-0.7816,-0.7757,-0.7749,-0.7739,-0.7731,-0.7707,-0.7698,-0.7811,-0.7811,-0.7811,0,-0.7497,-0.7507,-0.7567,-0.7566,-0.7582,-0.7654,-0.7641,-0.7664,-0.7707,-0.7717,-0.7745,-0.7775,-0.7805,-0.7799,-0.7781,-0.7789,-0.7789,-0.7811,-0.7736,-0.7728,-0.7721,-0.77,-0.769,-0.7806,-0.7806,-0.7807,-0.7807,0,-0.7423,-0.7429,-0.7413,-0.7456,-0.7469,-0.7461,-0.7521,-0.7528,-0.7567,-0.7604,-0.7604,-0.7643,-0.7669,-0.767,-0.7707,-0.767,-0.7685,-0.7723,-0.7775,-0.7703,-0.7684,-0.7676,-0.7798,-0.78,-0.7802,-0.7803,0,0,-0.7273,-0.7351,-0.7344,-0.7367,-0.7419,-0.7426,-0.7422,-0.745,-0.7456,-0.7483,-0.7484,-0.7501,-0.7539,-0.7556,-0.7597,-0.7589,-0.7532,-0.7629,-0.7631,-0.7613,-0.7498,-0.7471,-0.746,-0.7561,-0.756,-0.7559,-0.7496,0,-0.7196,-0.7196,-0.7252,-0.7237,-0.7245,-0.7315,-0.7313,-0.7345,-0.7381,-0.7394,-0.7433,-0.7445,-0.7491,-0.7503,-0.7498,-0.7539,-0.751,-0.7544,-0.7565,-0.7565,-0.7556,-0.745,-0.742,-0.7359,-0.7488,-0.7487,-0.7486,0,-0.7107,-0.7133,-0.7119,-0.7176,-0.7182,-0.7179,-0.7211,-0.7221,-0.726,-0.7287,-0.7308,-0.7356,-0.7358,-0.7405,-0.7411,-0.7433,-0.7445,-0.7466,-0.7465,-0.7471,-0.7523,-0.7456,-0.7341,-0.7333,-0.7474,-0.7475,-0.7476,0,-0.7003,-0.7034,-0.7032,-0.7048,-0.7113,-0.711,-0.7137,-0.7179,-0.7193,-0.722,-0.7231,-0.7256,-0.7271,-0.7291,-0.7345,-0.7373,-0.7346,-0.7396,-0.737,-0.7369,-0.7363,-0.7363,-0.7251,-0.7365,-0.7365,-0.7365,-0.7365,0,-0.6914,-0.6904,-0.6987,-0.6985,-0.6977,-0.7041,-0.7031,-0.7064,-0.7101,-0.7109,-0.7169,-0.7175,-0.7244,-0.7258,-0.73,-0.7301,-0.7306,-0.7329,-0.7341,-0.7325,-0.7323,-0.7336,-0.7342,-0.7363,-0.7363,-0.7364,-0.7364,0,-0.6797,-0.6852,-0.6855,-0.6917,-0.6933,-0.6924,-0.6979,-0.698,-0.702,-0.7029,-0.7035,-0.7097,-0.7117,-0.7173,-0.7205,-0.7234,-0.7224,-0.7244,-0.7211,-0.7219,-0.7192,-0.7195,-0.7086,-0.7077,-0.7193,-0.7191,-0.719,0,-0.6738,-0.6733,-0.6796,-0.6806,-0.6831,-0.6845,-0.6861,-0.6924,-0.6938,-0.6984,-0.6981,-0.7006,-0.703,-0.7058,-0.7107,-0.7133,-0.7156,-0.7117,-0.7161,-0.7147,-0.7161,-0.7162,-0.7163,-0.7108,-0.7106,-0.7105,-0.7104,0,-0.6629,-0.6657,-0.6678,-0.6709,-0.6727,-0.6754,-0.6784,-0.6789,-0.6859,-0.6872,-0.6894,-0.6912,-0.6948,-0.6973,-0.7008,-0.7036,-0.7083,-0.7089,-0.7086,-0.7071,-0.7054,-0.7067,-0.7189,-0.7092,-0.7093,-0.7094,-0.7095,-0.7095,-0.6542,-0.6543,-0.6588,-0.661,-0.664,-0.6668,-0.6675,-0.6716,-0.6736,-0.6771,-0.6807,-0.6826,-0.6868,-0.692,-0.6945,-0.6962,-0.6986,-0.6979,-0.6978,-0.6976,-0.6971,-0.7049,-0.6968,-0.6968,-0.6969,-0.6969,-0.6969,0,-0.644,-0.6473,-0.6493,-0.6535,-0.6553,-0.6595,-0.6632,-0.6645,-0.6661,-0.6697,-0.672,-0.6747,-0.6772,-0.6824,-0.6854,-0.6857,-0.688,-0.6864,-0.6866,-0.6872,-0.6946,-0.6948,-0.6845,-0.6846,-0.6846,-0.6846,-0.6846,-0.6846,-0.6389,-0.6393,-0.6426,-0.6447,-0.648,-0.6501,-0.6519,-0.6545,-0.6575,-0.6603,-0.6625,-0.6659,-0.6702,-0.6737,-0.6762,-0.6777,-0.6787,-0.6765,-0.6786,-0.6855,-0.6866,-0.6878,-0.688,-0.6765,-0.6765,-0.6712,-0.6712,-0.6711]}]]